[Date Prev][Date Next][Thread Prev][Thread Next] - [Date Index][Thread Index][Author Index]
2 Line ISS Keps 11-16
- Subject: [sarex] 2 Line ISS Keps 11-16
- From: "Dave Larsen PhD" <doc@xxxxxxxxxxx>
- Date: Fri, 16 Nov 2001 03:22:11 -0800
ISS
1 25544U 98067A 01320.20570571 .00072670 00000-0 83880-3 0 7252
2 25544 51.6424 44.1737 0009502 340.9555 57.6624 15.61199748170804
----
Via the sarex mailing list at AMSAT.ORG courtesy of AMSAT-NA.
To unsubscribe, send "unsubscribe sarex" to Majordomo@amsat.org
AMSAT Home